AAL891 KMIA-KBOS

Flight info

Callsign AAL891
Flight time N/A
Altitude 37000
Route FOLZZ3 ALYRA GRUBR Y299 SEELO WAALT Q131 EARZZ JAMIE Q133 JFK ROBUC3
Aircraft B737/M-SDE2E3FGHIRWXY/LB1

Departure

Time 2026-04-30 13:46
Airport Miami International Airport (KMIA)

Arrival

Time N/A
Airport Boston Logan International Airport (KBOS)
Time Latitude Longitude Altitude Speed Heading
2026-04-30 13:24 25.79822 -80.28368 13 ft 0 kts 178°
2026-04-30 13:33 25.79821 -80.28368 13 ft 0 kts 178°
2026-04-30 13:34 25.79834 -80.28368 13 ft 2 kts 178°
2026-04-30 13:34 25.79873 -80.28370 13 ft 2 kts 175°
2026-04-30 13:35 25.79888 -80.28373 13 ft 2 kts 162°
2026-04-30 13:35 25.79915 -80.28387 13 ft 2 kts 142°
2026-04-30 13:36 25.79935 -80.28412 13 ft 2 kts 121°
2026-04-30 13:36 25.79941 -80.28426 13 ft 2 kts 111°
2026-04-30 13:36 25.79947 -80.28459 13 ft 1 kts 90°
2026-04-30 13:37 25.79947 -80.28466 13 ft 1 kts 86°
2026-04-30 13:37 25.79947 -80.28467 13 ft 0 kts 87°
2026-04-30 13:39 25.79955 -80.28308 13 ft 14 kts 87°
2026-04-30 13:39 25.79963 -80.28091 13 ft 13 kts 88°
2026-04-30 13:40 25.79967 -80.27988 13 ft 13 kts 88°
2026-04-30 13:40 25.79970 -80.27884 13 ft 13 kts 88°
2026-04-30 13:40 25.79974 -80.27782 13 ft 13 kts 87°
2026-04-30 13:40 25.79980 -80.27685 13 ft 11 kts 85°
2026-04-30 13:41 25.79987 -80.27594 13 ft 11 kts 85°
2026-04-30 13:41 25.79989 -80.27505 13 ft 11 kts 88°
2026-04-30 13:41 25.79995 -80.27418 13 ft 11 kts 85°
2026-04-30 13:41 25.79999 -80.27332 13 ft 11 kts 87°
2026-04-30 13:42 25.80003 -80.27248 13 ft 10 kts 87°
2026-04-30 13:42 25.80002 -80.27170 13 ft 9 kts 87°
2026-04-30 13:42 25.80064 -80.27058 13 ft 7 kts 50°
2026-04-30 13:43 25.80085 -80.27031 13 ft 0 kts 50°
2026-04-30 13:44 25.80087 -80.27029 13 ft 1 kts 50°
2026-04-30 13:44 25.80099 -80.27014 13 ft 5 kts 47°
2026-04-30 13:44 25.80113 -80.27000 13 ft 2 kts 37°
2026-04-30 13:45 25.80187 -80.27000 13 ft 8 kts 296°
2026-04-30 13:45 25.80191 -80.27029 13 ft 2 kts 271°
2026-04-30 13:45 25.80182 -80.27303 13 ft 85 kts 266°
2026-04-30 13:46 25.80141 -80.28310 94 ft 164 kts 266°
2026-04-30 13:46 25.80040 -80.29562 1076 ft 173 kts 265°
2026-04-30 13:46 25.79994 -80.30843 2204 ft 172 kts 272°
2026-04-30 13:46 25.80107 -80.32211 2924 ft 190 kts 277°
2026-04-30 13:47 25.80269 -80.33704 3765 ft 204 kts 277°
2026-04-30 13:47 25.80427 -80.35311 4584 ft 219 kts 276°
2026-04-30 13:47 25.80586 -80.37044 5415 ft 235 kts 276°
2026-04-30 13:47 25.80823 -80.38864 6224 ft 251 kts 284°
2026-04-30 13:48 25.81591 -80.40664 7029 ft 267 kts 306°
2026-04-30 13:48 25.82819 -80.42252 7903 ft 280 kts 315°
2026-04-30 13:48 25.84357 -80.43555 8973 ft 285 kts 333°
2026-04-30 13:48 25.86222 -80.44267 10043 ft 288 kts 348°
2026-04-30 13:49 25.88223 -80.44497 10848 ft 301 kts 359°
2026-04-30 13:49 25.90394 -80.44369 11526 ft 318 kts 10°
2026-04-30 13:49 25.92520 -80.43572 12176 ft 335 kts 27°
2026-04-30 13:49 25.94449 -80.42044 13042 ft 344 kts 43°
2026-04-30 13:50 25.96079 -80.40090 13992 ft 349 kts 53°
2026-04-30 13:50 25.97932 -80.35116 15853 ft 359 kts 77°
2026-04-30 13:50 25.98473 -80.32413 16760 ft 363 kts 78°
2026-04-30 13:51 25.98907 -80.29644 17635 ft 368 kts 83°
2026-04-30 13:51 25.99145 -80.26811 18481 ft 373 kts 86°
2026-04-30 13:51 25.99270 -80.23926 19299 ft 378 kts 88°
2026-04-30 13:51 25.99354 -80.21046 20079 ft 382 kts 88°
2026-04-30 13:52 25.99438 -80.18085 20861 ft 387 kts 88°
2026-04-30 13:52 25.99530 -80.15079 21613 ft 391 kts 88°
2026-04-30 13:52 25.99661 -80.12061 22341 ft 396 kts 85°
2026-04-30 13:52 26.00025 -80.09021 23053 ft 400 kts 79°
2026-04-30 13:53 26.00607 -80.06016 23733 ft 404 kts 76°
2026-04-30 13:53 26.01232 -80.03290 24339 ft 407 kts 75°
2026-04-30 13:53 26.01554 -80.01952 24611 ft 410 kts 75°
2026-04-30 13:53 26.02309 -79.98885 25248 ft 414 kts 75°
2026-04-30 13:54 26.03068 -79.95805 25869 ft 418 kts 75°
2026-04-30 13:54 26.03826 -79.92700 26464 ft 422 kts 75°
2026-04-30 13:54 26.04584 -79.89548 27047 ft 425 kts 75°
2026-04-30 13:54 26.05346 -79.86347 27619 ft 429 kts 75°
2026-04-30 13:55 26.06099 -79.83156 28167 ft 433 kts 75°
2026-04-30 13:55 26.06865 -79.79883 28750 ft 435 kts 75°
2026-04-30 13:55 26.07623 -79.76633 29270 ft 439 kts 75°
2026-04-30 13:55 26.08381 -79.73370 29772 ft 442 kts 75°
2026-04-30 13:56 26.09157 -79.70058 30265 ft 446 kts 75°
2026-04-30 13:56 26.10037 -79.66721 30749 ft 449 kts 71°
2026-04-30 13:56 26.11184 -79.63438 31342 ft 449 kts 65°
2026-04-30 13:56 26.12627 -79.60376 32088 ft 445 kts 59°
2026-04-30 13:57 26.14290 -79.57468 32688 ft 444 kts 56°
2026-04-30 13:57 26.16080 -79.54628 33277 ft 443 kts 54°
2026-04-30 13:57 26.17884 -79.51876 33843 ft 442 kts 53°
2026-04-30 13:57 26.19704 -79.49129 34398 ft 441 kts 53°
2026-04-30 13:58 26.21529 -79.46362 34937 ft 440 kts 53°
2026-04-30 13:58 26.25129 -79.40868 35945 ft 438 kts 52°
2026-04-30 13:58 26.27033 -79.38256 36407 ft 437 kts 49°
2026-04-30 13:59 26.29093 -79.35788 36814 ft 437 kts 44°
2026-04-30 13:59 26.31385 -79.33491 36984 ft 441 kts 39°
2026-04-30 13:59 26.33825 -79.31427 36999 ft 442 kts 36°
2026-04-30 14:00 26.38895 -79.27657 37001 ft 437 kts 33°
2026-04-30 14:00 26.46620 -79.22240 37001 ft 437 kts 32°
2026-04-30 14:01 26.51791 -79.18600 37001 ft 437 kts 32°
2026-04-30 14:01 26.56922 -79.14959 37001 ft 437 kts 32°
2026-04-30 14:02 26.62067 -79.11289 37001 ft 437 kts 33°
2026-04-30 14:02 26.67202 -79.07614 37000 ft 437 kts 33°
2026-04-30 14:03 26.72329 -79.03939 37000 ft 437 kts 33°
2026-04-30 14:03 26.77453 -79.00262 37000 ft 436 kts 33°
2026-04-30 14:04 26.82583 -78.96574 37000 ft 436 kts 33°
2026-04-30 14:04 26.87663 -78.92921 37000 ft 436 kts 33°
2026-04-30 14:05 26.92804 -78.89218 37001 ft 436 kts 33°
2026-04-30 14:05 26.97900 -78.85545 37001 ft 436 kts 33°
2026-04-30 14:06 27.05535 -78.80033 37001 ft 436 kts 33°
2026-04-30 14:07 27.13231 -78.74468 37001 ft 436 kts 33°
2026-04-30 14:08 27.20880 -78.68928 37001 ft 436 kts 33°
2026-04-30 14:08 27.28765 -78.63763 36998 ft 436 kts 20°
2026-04-30 14:09 27.34680 -78.62264 37003 ft 437 kts
2026-04-30 14:10 27.43770 -78.61174 37001 ft 436 kts
2026-04-30 14:10 27.49871 -78.60487 37001 ft 436 kts
2026-04-30 14:11 27.55926 -78.59754 37001 ft 436 kts
2026-04-30 14:11 27.61980 -78.58990 37001 ft 436 kts
2026-04-30 14:12 27.68013 -78.58212 37001 ft 436 kts
2026-04-30 14:12 27.74046 -78.57427 37001 ft 436 kts
2026-04-30 14:13 27.80108 -78.56637 37001 ft 436 kts
2026-04-30 14:13 27.86149 -78.55848 37001 ft 436 kts
2026-04-30 14:14 27.92222 -78.55054 37001 ft 436 kts
2026-04-30 14:14 27.98239 -78.54266 37001 ft 436 kts
2026-04-30 14:15 28.04279 -78.53475 37001 ft 436 kts
2026-04-30 14:15 28.10346 -78.52679 37001 ft 436 kts
2026-04-30 14:16 28.16420 -78.51881 37001 ft 436 kts
2026-04-30 14:16 28.22425 -78.51092 37001 ft 436 kts
2026-04-30 14:17 28.28495 -78.50292 37001 ft 436 kts
2026-04-30 14:17 28.34518 -78.49499 37001 ft 436 kts
2026-04-30 14:18 28.40566 -78.48701 37001 ft 436 kts
2026-04-30 14:18 28.49600 -78.47508 37001 ft 436 kts
2026-04-30 14:19 28.58645 -78.46310 37001 ft 436 kts
2026-04-30 14:20 28.64710 -78.45506 37001 ft 436 kts
2026-04-30 14:20 28.73757 -78.44305 37001 ft 436 kts
2026-04-30 14:21 28.79776 -78.43506 37001 ft 436 kts
2026-04-30 14:22 28.88842 -78.42299 37001 ft 436 kts
2026-04-30 14:22 28.97885 -78.41093 37001 ft 436 kts
2026-04-30 14:23 29.09972 -78.39478 37001 ft 436 kts
2026-04-30 14:24 29.18980 -78.38272 37001 ft 436 kts
2026-04-30 14:25 29.31046 -78.36653 37001 ft 436 kts
2026-04-30 14:26 29.40123 -78.35432 37001 ft 436 kts
2026-04-30 14:27 29.49228 -78.34773 36999 ft 436 kts 354°
2026-04-30 14:27 29.55147 -78.36113 37002 ft 436 kts 345°
2026-04-30 14:28 29.63932 -78.39055 37001 ft 436 kts 343°
2026-04-30 14:28 29.69735 -78.41036 37001 ft 436 kts 343°
2026-04-30 14:29 29.80426 -78.44586 37001 ft 436 kts 344°
2026-04-30 14:31 29.96078 -78.49713 37001 ft 436 kts 344°
2026-04-30 14:31 30.04853 -78.52589 37001 ft 436 kts 344°
2026-04-30 14:32 30.13666 -78.55250 36999 ft 436 kts 351°
2026-04-30 14:33 30.19730 -78.55431 37003 ft 436 kts
2026-04-30 14:33 30.28772 -78.54157 37001 ft 436 kts
2026-04-30 14:34 30.34795 -78.53193 37001 ft 436 kts
2026-04-30 14:34 30.40813 -78.52268 37001 ft 435 kts
2026-04-30 14:35 30.49869 -78.50832 37001 ft 435 kts
2026-04-30 14:36 30.55856 -78.49841 37001 ft 435 kts
2026-04-30 14:36 30.61853 -78.48853 37001 ft 435 kts
2026-04-30 14:37 30.67844 -78.47873 37001 ft 435 kts
2026-04-30 14:37 30.73841 -78.46895 37001 ft 435 kts
2026-04-30 14:38 30.79898 -78.45908 37001 ft 435 kts
2026-04-30 14:38 30.85910 -78.44929 37001 ft 435 kts
2026-04-30 14:39 30.91932 -78.43946 37001 ft 435 kts
2026-04-30 14:39 30.97917 -78.42968 37001 ft 435 kts
2026-04-30 14:40 31.06957 -78.41489 37001 ft 435 kts
2026-04-30 14:40 31.12937 -78.40510 37000 ft 435 kts
2026-04-30 14:41 31.18973 -78.39519 37001 ft 435 kts
2026-04-30 14:41 31.24994 -78.38530 37001 ft 435 kts
2026-04-30 14:42 31.31050 -78.37534 37001 ft 435 kts
2026-04-30 14:42 31.37077 -78.36541 37001 ft 435 kts
2026-04-30 14:43 31.43051 -78.35555 37001 ft 435 kts
2026-04-30 14:43 31.49072 -78.34561 37001 ft 435 kts
2026-04-30 14:44 31.55074 -78.33569 37001 ft 435 kts
2026-04-30 14:44 31.61084 -78.32574 37001 ft 435 kts
2026-04-30 14:45 31.67089 -78.31578 37001 ft 435 kts
2026-04-30 14:45 31.73089 -78.30582 37001 ft 435 kts
2026-04-30 14:46 31.79085 -78.29586 37001 ft 435 kts
2026-04-30 14:46 31.84099 -78.28751 37001 ft 435 kts
2026-04-30 14:47 31.91082 -78.27588 37001 ft 435 kts
2026-04-30 14:47 31.97094 -78.26585 37001 ft 435 kts
2026-04-30 14:48 32.03096 -78.25577 37001 ft 435 kts
2026-04-30 14:48 32.09069 -78.24380 37001 ft 435 kts 11°
2026-04-30 14:49 32.15056 -78.23051 37001 ft 435 kts 11°
2026-04-30 14:49 32.20983 -78.21732 37001 ft 435 kts 11°
2026-04-30 14:50 32.29935 -78.19769 37001 ft 435 kts 11°
2026-04-30 14:51 32.38895 -78.17823 37001 ft 435 kts 10°
2026-04-30 14:52 32.47784 -78.15894 37001 ft 435 kts 10°
2026-04-30 14:52 32.56779 -78.13940 37001 ft 435 kts 10°
2026-04-30 14:53 32.65703 -78.11996 37001 ft 435 kts 10°
2026-04-30 14:54 32.77609 -78.09398 37001 ft 435 kts 10°
2026-04-30 14:55 32.86506 -78.07452 37001 ft 435 kts 10°
2026-04-30 14:56 32.98425 -78.04838 37001 ft 435 kts 10°
2026-04-30 14:57 33.07422 -78.02859 37001 ft 435 kts 10°
2026-04-30 14:58 33.19297 -78.00243 37001 ft 435 kts 10°
2026-04-30 14:58 33.28270 -77.98261 37001 ft 435 kts 10°
2026-04-30 15:00 33.43169 -77.94960 37001 ft 435 kts 10°
2026-04-30 15:01 33.55103 -77.92308 37001 ft 435 kts 10°
2026-04-30 15:01 33.64023 -77.90321 37001 ft 435 kts 10°
2026-04-30 15:02 33.69968 -77.88995 37001 ft 435 kts 10°
2026-04-30 15:03 33.84818 -77.85588 37001 ft 434 kts 12°
2026-04-30 15:04 33.99656 -77.81807 37001 ft 434 kts 12°
2026-04-30 15:06 34.14461 -77.78053 37001 ft 434 kts 12°
2026-04-30 15:07 34.26314 -77.75050 37001 ft 434 kts 12°
2026-04-30 15:08 34.38110 -77.72053 37001 ft 434 kts 12°
2026-04-30 15:09 34.52902 -77.68253 37000 ft 434 kts 13°
2026-04-30 15:10 34.64135 -77.62902 37001 ft 434 kts 26°
2026-04-30 15:11 34.80415 -77.52999 37001 ft 434 kts 26°
2026-04-30 15:13 34.93972 -77.44836 37001 ft 434 kts 26°
2026-04-30 15:14 35.12933 -77.33404 37001 ft 434 kts 26°
2026-04-30 15:17 35.37291 -77.18632 37001 ft 434 kts 26°
2026-04-30 15:19 35.58886 -77.05450 37001 ft 434 kts 26°